This is the latest recevied weather packets stored in our database for station/object N0KWA. If no packets are shown the sender has not sent any weather packets the latest 10 day(s).
| Time | Temp. | Humidity | Pressure | Rain* | Wind** | Luminosity | Snow |
|---|---|---|---|---|---|---|---|
| 1778094963 | 28.33° C | 86% | 1014.8 hPa | 0 mm | - | 34 W/m² | - |
| 1778094659 | 28.33° C | 87% | 1015 hPa | 0 mm | - | 39 W/m² | - |
| 1778094357 | 28.33° C | 87% | 1015 hPa | 0 mm | - | 52 W/m² | - |
| 1778094054 | 28.33° C | 88% | 1015.1 hPa | 0 mm | - | 52 W/m² | - |
| 1778093751 | 28.33° C | 88% | 1015.1 hPa | 0 mm | - | 46 W/m² | - |
| 1778093447 | 27.78° C | 89% | 1015.2 hPa | 0 mm | - | 69 W/m² | - |
| 1778093145 | 27.78° C | 90% | 1015.4 hPa | 0 mm | - | 81 W/m² | - |
| 1778092837 | 27.78° C | 90% | 1015.4 hPa | 0 mm | - | 98 W/m² | - |
| 1778092532 | 27.22° C | 92% | 1015.5 hPa | 0 mm | - | 81 W/m² | - |
| 1778092229 | 26.67° C | 93% | 1015.6 hPa | 0 mm | - | 108 W/m² | - |
| 1778091926 | 26.67° C | 92% | 1015.4 hPa | 0 mm | - | 19 W/m² | - |
| 1778091623 | 26.67° C | 93% | 1015.6 hPa | 0 mm | - | 13 W/m² | - |
| 1778091322 | 26.67° C | 93% | 1015.8 hPa | 0 mm | - | 25 W/m² | - |
| 1778091018 | 26.67° C | 95% | 1015.8 hPa | 0 mm | - | 29 W/m² | - |
| 1778090715 | 26.67° C | 95% | 1015.6 hPa | 0 mm | - | 33 W/m² | - |
| 1778090411 | 26.67° C | 95% | 1015.8 hPa | 0 mm | - | 29 W/m² | - |
| 1778090108 | 26.67° C | 95% | 1015.9 hPa | 0 mm | - | 31 W/m² | - |
| 1778089804 | 26.67° C | 95% | 1015.8 hPa | 0 mm | - | 23 W/m² | - |
| 1778089502 | 26.67° C | 94% | 1015.9 hPa | 0 mm | - | 14 W/m² | - |
| 1778089198 | 26.11° C | 94% | 1016.1 hPa | 0 mm | - | 28 W/m² | - |
| 1778088896 | 26.11° C | 95% | 1016.2 hPa | 0 mm | - | 28 W/m² | - |
| 1778088587 | 26.11° C | 96% | 1016.1 hPa | 0 mm | - | 29 W/m² | - |
| 1778088285 | 26.11° C | 97% | 1016.2 hPa | 0 mm | - | 34 W/m² | - |
| 1778087981 | 25.56° C | 98% | 1016.3 hPa | 0 mm | - | 49 W/m² | - |
| 1778087678 | 25.56° C | 99% | 1016.3 hPa | 0 mm | - | 37 W/m² | - |
* Rain latest hour (hover to see other rain measurements)
** Current wind speed in m/s (hover to see current wind gust speed)